,,,PA_Meas_PMT16A,,PR_Meas_QMR101_102,,RH_Meas_QMH101,,SR_Meas_QMS101,,TA_Meas_QMH101,,GenWind,,GenWind,
date,time,status,PA,status,PR,status,RH,status,SR,status,TA,status,DirAvg,status,SpdAvg,
2011-10-19, 00:00:04,VALID,999.288,VALID,0,VALID,90.5254,VALID,0.104696,VALID,23.2507,VALID,19,VALID,0.567187,
2011-10-19, 00:01:04,VALID,999.292,VALID,0,VALID,90.7162,VALID,0,VALID,23.2719,VALID,19,VALID,0.358594,
2011-10-19, 00:02:04,VALID,999.236,VALID,0,VALID,90.8535,VALID,0,VALID,23.2507,VALID,17,VALID,0.673047,
2011-10-19, 00:03:04,VALID,999.207,VALID,0,VALID,90.9298,VALID,0,VALID,23.2312,VALID,16,VALID,0.921484,
2011-10-19, 00:04:04,VALID,999.169,VALID,0,VALID,90.968,VALID,0,VALID,23.2702,VALID,16,VALID,0.782422,
2011-10-19, 00:05:04,VALID,999.168,VALID,0,VALID,90.8001,VALID,0.104696,VALID,23.2897,VALID,16,VALID,0.929688,
2011-10-19, 00:06:04,VALID,999.202,VALID,0,VALID,90.5712,VALID,0,VALID,23.2897,VALID,16,VALID,1.26133,
2011-10-19, 00:07:04,VALID,999.199,VALID,0,VALID,90.4034,VALID,0,VALID,23.2702,VALID,24,VALID,1.39922,
2011-10-19, 00:08:04,VALID,999.209,VALID,0,VALID,90.3042,VALID,0,VALID,23.2915,VALID,21,VALID,1.37109,
2011-10-19, 00:09:04,VALID,999.158,VALID,0,VALID,90.1821,VALID,0,VALID,23.2719,VALID,15,VALID,1.56211,
2011-10-19, 00:10:04,VALID,999.124,VALID,0,VALID,90.1974,VALID,0.104696,VALID,23.2312,VALID,11,VALID,1.86367,
2011-10-19, 00:11:04,VALID,999.143,VALID,0,VALID,90.205,VALID,0,VALID,23.2312,VALID,23,VALID,1.61172,
2011-10-19, 00:12:04,VALID,999.162,VALID,0,VALID,90.2966,VALID,0.104696,VALID,23.2524,VALID,46,VALID,1.55547,
2011-10-19, 00:13:04,VALID,999.148,VALID,0,VALID,90.2966,VALID,0,VALID,23.2329,VALID,43,VALID,1.25391,
2011-10-19, 00:14:04,VALID,999.201,VALID,0,VALID,90.3194,VALID,0.104696,VALID,23.2312,VALID,42,VALID,1.02031,
2011-10-19, 00:15:04,VALID,999.197,VALID,0,VALID,90.3347,VALID,0.104696,VALID,23.2524,VALID,43,VALID,0.994141,
2011-10-19, 00:16:04,VALID,999.182,VALID,0,VALID,90.2279,VALID,0.104696,VALID,23.2329,VALID,46,VALID,1.3543,
2011-10-19, 00:17:04,VALID,999.183,VALID,0,VALID,90.1592,VALID,0.104696,VALID,23.2524,VALID,22,VALID,1.14414,
2011-10-19, 00:18:04,VALID,999.171,VALID,0,VALID,90.06,VALID,0.104696,VALID,23.2134,VALID,356,VALID,1.06133,
2011-10-19, 00:19:04,VALID,999.14,VALID,0,VALID,89.9456,VALID,0,VALID,23.2134,VALID,354,VALID,0.787891,
2011-10-19, 00:20:04,VALID,999.109,VALID,0,VALID,89.8159,VALID,0.104696,VALID,23.1726,VALID,345,VALID,1.07109,
2011-10-19, 00:21:04,VALID,999.102,VALID,0,VALID,89.5641,VALID,0.104696,VALID,23.2134,VALID,349,VALID,1.24023,
2011-10-19, 00:22:04,VALID,999.085,VALID,0,VALID,89.4878,VALID,0,VALID,23.2117,VALID,1,VALID,1.00117,
2011-10-19, 00:23:04,VALID,999.052,VALID,0,VALID,89.6251,VALID,0,VALID,23.2329,VALID,13,VALID,1.27188,
2011-10-19, 00:24:04,VALID,999.035,VALID,0,VALID,89.5183,VALID,0,VALID,23.1939,VALID,343,VALID,1.36758,
2011-10-19, 00:25:04,VALID,999.005,VALID,0,VALID,89.3123,VALID,0,VALID,23.2329,VALID,332,VALID,0.891406,
2011-10-19, 00:26:04,VALID,999.027,VALID,0,VALID,88.9156,VALID,0,VALID,23.2524,VALID,356,VALID,0.580469,
2011-10-19, 00:27:04,VALID,999.054,VALID,0,VALID,88.9995,VALID,0,VALID,23.2524,VALID,55,VALID,0.892969,
2011-10-19, 00:28:04,VALID,999.084,VALID,0,VALID,89.442,VALID,0,VALID,23.2329,VALID,80,VALID,0.35625,
2011-10-19, 00:29:04,VALID,999.073,VALID,0,VALID,89.7167,VALID,0,VALID,23.2134,VALID,83,VALID,0.707031,
2011-10-19, 00:30:04,VALID,999.091,VALID,0,VALID,89.8083,VALID,0,VALID,23.1921,VALID,85,VALID,0.553516,
2011-10-19, 00:31:04,VALID,999.07,VALID,0,VALID,89.7472,VALID,0,VALID,23.1939,VALID,85,VALID,0.652734,
2011-10-19, 00:32:04,VALID,999.124,VALID,0,VALID,89.5565,VALID,0,VALID,23.2134,VALID,148,VALID,1.26523,
2011-10-19, 00:33:04,VALID,999.112,VALID,0,VALID,89.2284,VALID,0,VALID,23.2524,VALID,149,VALID,1.58359,
2011-10-19, 00:34:04,VALID,999.129,VALID,0,VALID,88.6791,VALID,0,VALID,23.311,VALID,172,VALID,1.42422,
2011-10-19, 00:35:04,VALID,999.109,VALID,0,VALID,88.4349,VALID,0,VALID,23.428,VALID,182,VALID,1.82109,
2011-10-19, 00:36:04,VALID,999.103,VALID,0,VALID,88.0992,VALID,0,VALID,23.5451,VALID,185,VALID,1.35195,
2011-10-19, 00:37:04,VALID,999.091,VALID,0,VALID,87.0463,VALID,0,VALID,23.6427,VALID,182,VALID,1.05352,
2011-10-19, 00:38:04,VALID,999.085,VALID,0,VALID,85.5204,VALID,0,VALID,23.7597,VALID,200,VALID,1.2168,
2011-10-19, 00:39:04,VALID,999.07,VALID,0,VALID,84.8872,VALID,0,VALID,23.875,VALID,174,VALID,1.30938,
2011-10-19, 00:40:04,VALID,999.049,VALID,0,VALID,84.9787,VALID,0,VALID,23.9726,VALID,177,VALID,1.84492,
2011-10-19, 00:41:04,VALID,999.007,VALID,0,VALID,84.3989,VALID,0,VALID,24.111,VALID,195,VALID,1.33867,
2011-10-19, 00:42:04,VALID,998.948,VALID,0,VALID,84.0326,VALID,0,VALID,24.1872,VALID,205,VALID,1.50625,
2011-10-19, 00:43:04,VALID,998.94,VALID,0,VALID,84.4904,VALID,0,VALID,24.2671,VALID,177,VALID,1.28164,
2011-10-19, 00:44:04,VALID,998.924,VALID,0,VALID,84.8185,VALID,0,VALID,24.1891,VALID,166,VALID,1.44727,
2011-10-19, 00:45:04,VALID,998.906,VALID,0,VALID,85.0092,VALID,0,VALID,24.1305,VALID,161,VALID,1.15937,
2011-10-19, 00:46:04,VALID,998.912,VALID,0,VALID,85.2,VALID,0,VALID,24.0701,VALID,147,VALID,0.851172,
2011-10-19, 00:47:04,VALID,998.883,VALID,0,VALID,85.5891,VALID,0,VALID,24.072,VALID,117,VALID,1.01523,
2011-10-19, 00:48:04,VALID,998.847,VALID,0,VALID,85.9706,VALID,0,VALID,24.0329,VALID,117,VALID,0.898047,
2011-10-19, 00:49:04,VALID,998.859,VALID,0,VALID,86.2757,VALID,0,VALID,23.9549,VALID,117,VALID,0.827734,
2011-10-19, 00:50:04,VALID,998.829,VALID,0,VALID,86.1537,VALID,0,VALID,23.9159,VALID,117,VALID,0.433984,
2011-10-19, 00:51:04,VALID,998.811,VALID,0,VALID,85.2305,VALID,0,VALID,23.9159,VALID,117,VALID,0.480078,
2011-10-19, 00:52:04,VALID,998.763,VALID,0,VALID,85.1237,VALID,0,VALID,23.9549,VALID,117,VALID,0.272656,
2011-10-19, 00:53:04,VALID,998.736,VALID,0,VALID,85.3297,VALID,0,VALID,23.9549,VALID,117,VALID,0.166797,
2011-10-19, 00:54:04,VALID,998.711,VALID,0,VALID,85.6654,VALID,0,VALID,23.9354,VALID,117,VALID,0.283984,
2011-10-19, 00:55:04,VALID,998.694,VALID,0,VALID,85.7798,VALID,0,VALID,23.8963,VALID,117,VALID,0.409375,
2011-10-19, 00:56:04,VALID,998.685,VALID,0,VALID,85.9858,VALID,0,VALID,23.8963,VALID,117,VALID,0.520703,
2011-10-19, 00:57:04,VALID,998.68,VALID,0,VALID,85.9477,VALID,0,VALID,23.8378,VALID,84,VALID,0.758984,
2011-10-19, 00:58:04,VALID,998.678,VALID,0,VALID,86.1232,VALID,0,VALID,23.7402,VALID,35,VALID,0.935156,
2011-10-19, 00:59:04,VALID,998.636,VALID,0,VALID,86.4283,VALID,0,VALID,23.6817,VALID,22,VALID,1.08945,
2011-10-19, 01:00:04,VALID,998.617,VALID,0,VALID,86.5199,VALID,0,VALID,23.6622,VALID,22,VALID,1.09727,
2011-10-19, 01:01:04,VALID,998.617,VALID,0,VALID,86.5886,VALID,0,VALID,23.5823,VALID,353,VALID,0.953906,
2011-10-19, 01:02:04,VALID,998.597,VALID,0,VALID,86.6725,VALID,0,VALID,23.5451,VALID,350,VALID,0.950391,
2011-10-19, 01:03:04,VALID,998.609,VALID,0,VALID,86.9777,VALID,0,VALID,23.4866,VALID,350,VALID,1.01484,
2011-10-19, 01:04:04,VALID,998.594,VALID,0,VALID,87.1837,VALID,0,VALID,23.4475,VALID,350,VALID,0.898828,
2011-10-19, 01:05:04,VALID,998.604,VALID,0,VALID,87.382,VALID,0,VALID,23.389,VALID,350,VALID,0.670703,
2011-10-19, 01:06:04,VALID,998.579,VALID,0,VALID,87.6491,VALID,0,VALID,23.35,VALID,350,VALID,0.395703,
2011-10-19, 01:07:04,VALID,998.603,VALID,0,VALID,87.9543,VALID,0,VALID,23.2915,VALID,350,VALID,0.330078,
2011-10-19, 01:08:04,VALID,998.572,VALID,0,VALID,87.9314,VALID,0,VALID,23.2329,VALID,351,VALID,0.535156,
2011-10-19, 01:09:04,VALID,998.566,VALID,0,VALID,88.3281,VALID,0,VALID,23.1549,VALID,353,VALID,0.601563,
2011-10-19, 01:10:04,VALID,998.579,VALID,0,VALID,88.8011,VALID,0,VALID,23.1141,VALID,81,VALID,0.365625,
2011-10-19, 01:11:04,VALID,998.565,VALID,0,VALID,88.702,VALID,0,VALID,23.1549,VALID,81,VALID,0.486328,
2011-10-19, 01:12:04,VALID,998.545,VALID,0,VALID,88.2137,VALID,0,VALID,23.1726,VALID,48,VALID,0.940625,
2011-10-19, 01:13:04,VALID,998.537,VALID,0,VALID,87.6186,VALID,0,VALID,23.2134,VALID,37,VALID,1.07266,
2011-10-19, 01:14:04,VALID,998.531,VALID,0,VALID,87.4507,VALID,0,VALID,23.2134,VALID,37,VALID,0.741797,
2011-10-19, 01:15:04,VALID,998.524,VALID,0,VALID,87.4812,VALID,0,VALID,23.2134,VALID,50,VALID,0.924219,
2011-10-19, 01:16:04,VALID,998.482,VALID,0,VALID,87.4202,VALID,0,VALID,23.2329,VALID,35,VALID,0.758594,
2011-10-19, 01:17:04,VALID,998.491,VALID,0,VALID,87.0387,VALID,0,VALID,23.2719,VALID,29,VALID,0.250391,
2011-10-19, 01:18:04,VALID,998.455,VALID,0,VALID,86.9319,VALID,0,VALID,23.2329,VALID,29,VALID,0.511328,
2011-10-19, 01:19:04,VALID,998.433,VALID,0,VALID,87.3057,VALID,0,VALID,23.1549,VALID,29,VALID,0.566406,
2011-10-19, 01:20:04,VALID,998.403,VALID,0,VALID,87.8474,VALID,0,VALID,23.0946,VALID,29,VALID,0.885156,
2011-10-19, 01:21:04,VALID,998.387,VALID,0,VALID,87.9619,VALID,0,VALID,23.1354,VALID,36,VALID,1.13945,
2011-10-19, 01:22:04,VALID,998.378,VALID,0,VALID,87.7483,VALID,0,VALID,23.1354,VALID,36,VALID,1.06328,
2011-10-19, 01:23:04,VALID,998.366,VALID,0,VALID,87.6643,VALID,0,VALID,23.1549,VALID,36,VALID,0.806641,
2011-10-19, 01:24:04,VALID,998.355,VALID,0,VALID,87.5804,VALID,0,VALID,23.1354,VALID,36,VALID,0.692187,
2011-10-19, 01:25:04,VALID,998.353,VALID,0,VALID,87.8169,VALID,0,VALID,23.1159,VALID,36,VALID,0.685938,
2011-10-19, 01:26:04,VALID,998.352,VALID,0,VALID,87.8169,VALID,0,VALID,23.1354,VALID,36,VALID,0.833203,
2011-10-19, 01:27:04,VALID,998.306,VALID,0,VALID,88.0763,VALID,0,VALID,23.1354,VALID,36,VALID,0.572656,
2011-10-19, 01:28:04,VALID,998.304,VALID,0,VALID,88.2442,VALID,0,VALID,23.0751,VALID,36,VALID,0.426953,
2011-10-19, 01:29:04,VALID,998.317,VALID,0,VALID,88.3892,VALID,0,VALID,23.0378,VALID,36,VALID,0.251563,
2011-10-19, 01:30:04,VALID,998.327,VALID,0,VALID,89.114,VALID,0,VALID,23.0183,VALID,36,VALID,0.716797,
2011-10-19, 01:31:04,VALID,998.318,VALID,0,VALID,89.8617,VALID,0,VALID,22.9988,VALID,101,VALID,0.859766,
2011-10-19, 01:32:04,VALID,998.336,VALID,0,VALID,90.0906,VALID,0,VALID,22.9598,VALID,122,VALID,0.876953,
2011-10-19, 01:33:04,VALID,998.337,VALID,0,VALID,90.3271,VALID,0,VALID,22.9208,VALID,133,VALID,0.945313,
2011-10-19, 01:34:04,VALID,998.343,VALID,0,VALID,90.5331,VALID,0,VALID,22.9385,VALID,168,VALID,1.34687,
2011-10-19, 01:35:04,VALID,998.38,VALID,0,VALID,90.5788,VALID,0,VALID,22.9971,VALID,164,VALID,1.03125,
2011-10-19, 01:36:04,VALID,998.36,VALID,0,VALID,90.0906,VALID,0,VALID,23.0769,VALID,146,VALID,0.469141,
2011-10-19, 01:37:04,VALID,998.332,VALID,0,VALID,89.5412,VALID,0,VALID,23.1549,VALID,146,VALID,0.416406,
2011-10-19, 01:38:04,VALID,998.358,VALID,0,VALID,89.1674,VALID,0,VALID,23.2329,VALID,146,VALID,0.107031,
2011-10-19, 01:39:04,VALID,998.352,VALID,0,VALID,88.7401,VALID,0,VALID,23.2915,VALID,156,VALID,0.692578,
2011-10-19, 01:40:04,VALID,998.344,VALID,0,VALID,88.3205,VALID,0,VALID,23.3305,VALID,156,VALID,1.24922,
2011-10-19, 01:41:04,VALID,998.341,VALID,0,VALID,88.496,VALID,0,VALID,23.389,VALID,146,VALID,1.17148,
2011-10-19, 01:42:04,VALID,998.329,VALID,0,VALID,88.8698,VALID,0.104696,VALID,23.4085,VALID,146,VALID,0.797656,
2011-10-19, 01:43:04,VALID,998.298,VALID,0,VALID,88.9385,VALID,0.104696,VALID,23.4085,VALID,146,VALID,0.6625,
2011-10-19, 01:44:04,VALID,998.223,VALID,0,VALID,88.6104,VALID,0,VALID,23.4475,VALID,146,VALID,0.577344,
2011-10-19, 01:45:04,VALID,998.212,VALID,0,VALID,88.8622,VALID,0,VALID,23.4458,VALID,146,VALID,0.428906,
2011-10-19, 01:46:04,VALID,998.208,VALID,0,VALID,89.0148,VALID,0,VALID,23.4671,VALID,146,VALID,0.316016,
2011-10-19, 01:47:04,VALID,998.171,VALID,0,VALID,89.0377,VALID,0.104696,VALID,23.4263,VALID,146,VALID,0.778906,
2011-10-19, 01:48:04,VALID,998.178,VALID,0,VALID,89.1368,VALID,0,VALID,23.4475,VALID,50,VALID,1.29414,
2011-10-19, 01:49:04,VALID,998.175,VALID,0,VALID,89.2208,VALID,0,VALID,23.4475,VALID,50,VALID,1.09922,
2011-10-19, 01:50:04,VALID,998.165,VALID,0,VALID,89.1292,VALID,0,VALID,23.389,VALID,50,VALID,0.941016,
2011-10-19, 01:51:04,VALID,998.165,VALID,0,VALID,89.1674,VALID,0,VALID,23.3287,VALID,50,VALID,0.900781,
2011-10-19, 01:52:04,VALID,998.171,VALID,0,VALID,89.0758,VALID,0,VALID,23.2897,VALID,50,VALID,1.03437,
2011-10-19, 01:53:04,VALID,998.149,VALID,0,VALID,88.8469,VALID,0,VALID,23.2329,VALID,50,VALID,1.1332,
2011-10-19, 01:54:04,VALID,998.143,VALID,0,VALID,89.03,VALID,0,VALID,23.1939,VALID,50,VALID,1.34102,
2011-10-19, 01:55:04,VALID,998.145,VALID,0,VALID,89.0758,VALID,0,VALID,23.1549,VALID,50,VALID,1.60586,
2011-10-19, 01:56:04,VALID,998.15,VALID,0,VALID,89.0606,VALID,0,VALID,23.1744,VALID,56,VALID,1.43203,
2011-10-19, 01:57:04,VALID,998.133,VALID,0,VALID,88.7859,VALID,0,VALID,23.1744,VALID,56,VALID,1.18516,
2011-10-19, 01:58:04,VALID,998.157,VALID,0,VALID,88.3434,VALID,0,VALID,23.1939,VALID,56,VALID,0.885156,
2011-10-19, 01:59:04,VALID,998.179,VALID,0,VALID,88.1908,VALID,0,VALID,23.1744,VALID,63,VALID,0.924609,
2011-10-19, 02:00:04,VALID,998.197,VALID,0,VALID,88.1297,VALID,0,VALID,23.1159,VALID,177,VALID,0.903906,
2011-10-19, 02:01:04,VALID,998.178,VALID,0,VALID,88.5799,VALID,0,VALID,23.0573,VALID,153,VALID,0.928906,
2011-10-19, 02:02:04,VALID,998.152,VALID,0,VALID,88.9156,VALID,0,VALID,23.0573,VALID,154,VALID,0.787109,
2011-10-19, 02:03:04,VALID,998.103,VALID,0,VALID,89.3428,VALID,0,VALID,23.0573,VALID,154,VALID,0.642187,
2011-10-19, 02:04:04,VALID,998.102,VALID,0,VALID,89.5565,VALID,0,VALID,23.0769,VALID,154,VALID,0.886328,
2011-10-19, 02:05:04,VALID,998.075,VALID,0,VALID,89.6557,VALID,0,VALID,23.0769,VALID,154,VALID,0.892578,
2011-10-19, 02:06:04,VALID,998.06,VALID,0,VALID,89.6557,VALID,0,VALID,23.0769,VALID,154,VALID,0.665625,
2011-10-19, 02:07:04,VALID,998.053,VALID,0,VALID,89.6862,VALID,0,VALID,23.0769,VALID,154,VALID,0.674609,
2011-10-19, 02:08:04,VALID,998.039,VALID,0,VALID,89.6633,VALID,0,VALID,23.0378,VALID,154,VALID,0.695703,
2011-10-19, 02:09:04,VALID,998.047,VALID,0,VALID,89.7854,VALID,0,VALID,23.0183,VALID,154,VALID,0.592969,
2011-10-19, 02:10:04,VALID,998.062,VALID,0,VALID,89.8083,VALID,0,VALID,22.9988,VALID,154,VALID,0.279297,
2011-10-19, 02:11:04,VALID,998.079,VALID,0,VALID,89.8693,VALID,0,VALID,22.9793,VALID,120,VALID,0.598437,
2011-10-19, 02:12:04,VALID,998.094,VALID,0,VALID,89.854,VALID,0,VALID,22.9403,VALID,23,VALID,1.31016,
2011-10-19, 02:13:04,VALID,998.051,VALID,0,VALID,89.6862,VALID,0,VALID,22.8605,VALID,9,VALID,1.31641,
2011-10-19, 02:14:04,VALID,998.032,VALID,0,VALID,89.7549,VALID,0,VALID,22.841,VALID,14,VALID,0.9125,
2011-10-19, 02:15:04,VALID,998.038,VALID,0,VALID,90.1058,VALID,0,VALID,22.8427,VALID,30,VALID,0.65625,
2011-10-19, 02:16:04,VALID,998.012,VALID,0,VALID,90.2889,VALID,0,VALID,22.8427,VALID,30,VALID,0.592578,
2011-10-19, 02:17:04,VALID,998.013,VALID,0,VALID,90.5331,VALID,0,VALID,22.8427,VALID,30,VALID,0.503906,
2011-10-19, 02:18:04,VALID,997.987,VALID,0,VALID,90.6933,VALID,0,VALID,22.8427,VALID,30,VALID,0.273828,
2011-10-19, 02:19:04,VALID,998.001,VALID,0,VALID,90.7849,VALID,0,VALID,22.8427,VALID,30,VALID,0.459375,
2011-10-19, 02:20:04,VALID,998.018,VALID,0,VALID,90.5254,VALID,0,VALID,22.7842,VALID,30,VALID,0.624219,
2011-10-19, 02:21:04,VALID,997.986,VALID,0,VALID,90.3881,VALID,0,VALID,22.7257,VALID,30,VALID,0.861328,
2011-10-19, 02:22:04,VALID,997.969,VALID,0,VALID,90.8154,VALID,0,VALID,22.7045,VALID,15,VALID,0.840625,
2011-10-19, 02:23:04,VALID,997.976,VALID,0,VALID,90.9985,VALID,0,VALID,22.7062,VALID,15,VALID,0.51875,
2011-10-19, 02:24:04,VALID,997.992,VALID,0,VALID,90.9298,VALID,0,VALID,22.6867,VALID,15,VALID,0.320703,
2011-10-19, 02:25:04,VALID,998.003,VALID,0,VALID,90.7696,VALID,0,VALID,22.6282,VALID,15,VALID,0.703906,
2011-10-19, 02:26:04,VALID,997.98,VALID,0,VALID,91.0061,VALID,0,VALID,22.6087,VALID,15,VALID,1.01953,
2011-10-19, 02:27:04,VALID,997.918,VALID,0,VALID,91.2426,VALID,0,VALID,22.5892,VALID,15,VALID,0.655469,
2011-10-19, 02:28:04,VALID,997.929,VALID,0,VALID,91.5097,VALID,0,VALID,22.5696,VALID,341,VALID,0.776953,
2011-10-19, 02:29:04,VALID,997.965,VALID,0,VALID,91.7309,VALID,0,VALID,22.5696,VALID,341,VALID,0.614062,
2011-10-19, 02:30:04,VALID,997.934,VALID,0,VALID,91.8072,VALID,0,VALID,22.5094,VALID,341,VALID,0.381641,
2011-10-19, 02:31:04,VALID,997.977,VALID,0,VALID,91.8911,VALID,0,VALID,22.4899,VALID,341,VALID,0.413281,
2011-10-19, 02:32:04,VALID,997.968,VALID,0,VALID,91.8988,VALID,0,VALID,22.4916,VALID,341,VALID,0.620313,
2011-10-19, 02:33:04,VALID,997.961,VALID,0,VALID,91.9827,VALID,0,VALID,22.4916,VALID,341,VALID,0.615625,
2011-10-19, 02:34:04,VALID,997.968,VALID,0,VALID,92.0743,VALID,0,VALID,22.4704,VALID,341,VALID,0.575391,
2011-10-19, 02:35:04,VALID,998.006,VALID,0,VALID,92.1124,VALID,0,VALID,22.5306,VALID,341,VALID,0.338672,
2011-10-19, 02:36:04,VALID,997.999,VALID,0,VALID,92.1658,VALID,0,VALID,22.4899,VALID,341,VALID,0.249609,
2011-10-19, 02:37:04,VALID,997.99,VALID,0,VALID,92.1582,VALID,0,VALID,22.4916,VALID,341,VALID,0.494922,
2011-10-19, 02:38:04,VALID,997.968,VALID,0,VALID,92.2192,VALID,0,VALID,22.4916,VALID,341,VALID,0.472656,
2011-10-19, 02:39:04,VALID,997.942,VALID,0,VALID,92.2421,VALID,0,VALID,22.5111,VALID,341,VALID,0.452734,
2011-10-19, 02:40:04,VALID,997.911,VALID,0,VALID,92.1582,VALID,0,VALID,22.4916,VALID,341,VALID,0.367188,
2011-10-19, 02:41:04,VALID,997.956,VALID,0,VALID,92.1506,VALID,0,VALID,22.4721,VALID,341,VALID,0.478906,
2011-10-19, 02:42:04,VALID,997.975,VALID,0,VALID,92.0895,VALID,0,VALID,22.4314,VALID,30,VALID,0.880859,
2011-10-19, 02:43:04,VALID,998.018,VALID,0,VALID,91.9827,VALID,0,VALID,22.3924,VALID,30,VALID,0.571875,
2011-10-19, 02:44:04,VALID,998.038,VALID,0,VALID,91.9064,VALID,0,VALID,22.3551,VALID,30,VALID,0.442578,
2011-10-19, 02:45:04,VALID,998.088,VALID,0,VALID,91.9369,VALID,0,VALID,22.3161,VALID,123,VALID,0.89375,
2011-10-19, 02:46:04,VALID,998.094,VALID,0,VALID,92.0666,VALID,0,VALID,22.2966,VALID,123,VALID,1.09453,
2011-10-19, 02:47:04,VALID,998.068,VALID,0,VALID,92.2955,VALID,0,VALID,22.3356,VALID,123,VALID,0.750391,
2011-10-19, 02:48:04,VALID,998.088,VALID,0,VALID,92.4023,VALID,0,VALID,22.3356,VALID,123,VALID,0.64375,
2011-10-19, 02:49:04,VALID,998.046,VALID,0,VALID,92.532,VALID,0,VALID,22.3941,VALID,123,VALID,0.588281,
2011-10-19, 02:50:04,VALID,998.033,VALID,0,VALID,92.532,VALID,0,VALID,22.4314,VALID,123,VALID,0.940625,
2011-10-19, 02:51:04,VALID,998.035,VALID,0,VALID,92.5549,VALID,0,VALID,22.5501,VALID,144,VALID,0.994531,
2011-10-19, 02:52:04,VALID,998.018,VALID,0,VALID,92.5549,VALID,0,VALID,22.6867,VALID,144,VALID,0.705469,
2011-10-19, 02:53:04,VALID,998.013,VALID,0,VALID,92.3642,VALID,0,VALID,22.7647,VALID,159,VALID,0.516797,
2011-10-19, 02:54:04,VALID,998.031,VALID,0,VALID,92.0437,VALID,0,VALID,22.8232,VALID,159,VALID,0.469922,
2011-10-19, 02:55:04,VALID,998.042,VALID,0,VALID,91.586,VALID,0,VALID,22.8232,VALID,159,VALID,0.0046875,
2011-10-19, 02:56:04,VALID,998.068,VALID,0,VALID,90.9146,VALID,0,VALID,22.7842,VALID,149,VALID,0.54375,
2011-10-19, 02:57:04,VALID,998.091,VALID,0,VALID,90.6475,VALID,0,VALID,22.7257,VALID,149,VALID,0.450391,
2011-10-19, 02:58:04,VALID,998.117,VALID,0,VALID,90.8306,VALID,0,VALID,22.6867,VALID,149,VALID,0.0921875,
2011-10-19, 02:59:04,VALID,998.122,VALID,0,VALID,90.9298,VALID,0,VALID,22.6477,VALID,149,VALID,0.133203,
2011-10-19, 03:00:04,VALID,998.149,VALID,0,VALID,90.9451,VALID,0,VALID,22.6087,VALID,149,VALID,0.159766,
2011-10-19, 03:01:04,VALID,998.16,VALID,0,VALID,90.9069,VALID,0,VALID,22.5696,VALID,147,VALID,0.498828,
2011-10-19, 03:02:04,VALID,998.166,VALID,0,VALID,91.4868,VALID,0,VALID,22.5892,VALID,82,VALID,0.964063,
2011-10-19, 03:03:04,VALID,998.145,VALID,0,VALID,91.853,VALID,0,VALID,22.6494,VALID,66,VALID,0.973437,
2011-10-19, 03:04:04,VALID,998.165,VALID,0,VALID,91.998,VALID,0,VALID,22.7257,VALID,66,VALID,0.538281,
2011-10-19, 03:05:04,VALID,998.152,VALID,0,VALID,91.647,VALID,0,VALID,22.6867,VALID,66,VALID,0.337109,
2011-10-19, 03:06:04,VALID,998.129,VALID,0,VALID,91.1053,VALID,0,VALID,22.5892,VALID,331,VALID,0.434375,
2011-10-19, 03:07:04,VALID,998.143,VALID,0,VALID,90.9756,VALID,0,VALID,22.5306,VALID,331,VALID,0.342969,
2011-10-19, 03:08:04,VALID,998.176,VALID,0,VALID,91.1282,VALID,0,VALID,22.4721,VALID,331,VALID,0.208594,
2011-10-19, 03:09:04,VALID,998.148,VALID,0,VALID,91.3266,VALID,0,VALID,22.4314,VALID,331,VALID,0,
2011-10-19, 03:10:04,VALID,998.135,VALID,0,VALID,91.441,VALID,0,VALID,22.3924,VALID,331,VALID,0.314844,
2011-10-19, 03:11:04,VALID,998.111,VALID,0,VALID,91.6394,VALID,0.104696,VALID,22.3941,VALID,331,VALID,0.544531,
2011-10-19, 03:12:04,VALID,998.086,VALID,0,VALID,91.8225,VALID,0,VALID,22.3551,VALID,331,VALID,0.355469,
2011-10-19, 03:13:04,VALID,998.049,VALID,0,VALID,92.0437,VALID,0,VALID,22.3551,VALID,331,VALID,0.46875,
2011-10-19, 03:14:04,VALID,998.068,VALID,0,VALID,92.2345,VALID,0,VALID,22.3746,VALID,331,VALID,0.748828,
2011-10-19, 03:15:04,VALID,998.046,VALID,0,VALID,92.3566,VALID,0,VALID,22.3746,VALID,331,VALID,0.278906,
2011-10-19, 03:16:04,VALID,998.068,VALID,0,VALID,92.4252,VALID,0,VALID,22.3746,VALID,331,VALID,0,
2011-10-19, 03:17:04,VALID,998.107,VALID,0,VALID,92.41,VALID,0,VALID,22.3551,VALID,331,VALID,0.0117188,
2011-10-19, 03:18:04,VALID,998.072,VALID,0,VALID,92.3413,VALID,0,VALID,22.3356,VALID,331,VALID,0.410156,
2011-10-19, 03:19:04,VALID,998.05,VALID,0,VALID,92.4863,VALID,0,VALID,22.3551,VALID,331,VALID,0.341406,
2011-10-19, 03:20:04,VALID,997.979,VALID,0,VALID,92.5778,VALID,0,VALID,22.3551,VALID,331,VALID,1.10273,
2011-10-19, 03:21:04,VALID,997.972,VALID,0,VALID,92.4863,VALID,0,VALID,22.3356,VALID,329,VALID,1.52109,
2011-10-19, 03:22:04,VALID,997.944,VALID,0,VALID,92.3794,VALID,0,VALID,22.2771,VALID,10,VALID,1.51445,
2011-10-19, 03:23:04,VALID,997.975,VALID,0,VALID,92.1506,VALID,0,VALID,22.1795,VALID,24,VALID,1.92891,
2011-10-19, 03:24:04,VALID,998.011,VALID,0,VALID,92.1353,VALID,0,VALID,22.121,VALID,7,VALID,1.20195,
2011-10-19, 03:25:04,VALID,998.007,VALID,0,VALID,92.2421,VALID,0,VALID,22.1015,VALID,7,VALID,0.500781,
2011-10-19, 03:26:04,VALID,997.958,VALID,0,VALID,92.3871,VALID,0,VALID,22.1194,VALID,7,VALID,0.541406,
2011-10-19, 03:27:04,VALID,997.948,VALID,0,VALID,92.532,VALID,0,VALID,22.1405,VALID,7,VALID,1.01367,
2011-10-19, 03:28:04,VALID,997.92,VALID,0,VALID,92.5854,VALID,0,VALID,22.1194,VALID,7,VALID,1.06992,
2011-10-19, 03:29:04,VALID,997.902,VALID,0,VALID,92.677,VALID,0,VALID,22.1795,VALID,7,VALID,0.977734,
2011-10-19, 03:30:04,VALID,997.939,VALID,0,VALID,92.6541,VALID,0,VALID,22.16,VALID,18,VALID,2.09258,
2011-10-19, 03:31:04,VALID,997.933,VALID,0,VALID,92.6617,VALID,0,VALID,22.2186,VALID,356,VALID,1.89141,
2011-10-19, 03:32:04,VALID,997.965,VALID,0,VALID,92.6236,VALID,0,VALID,22.2771,VALID,3,VALID,1.26172,
2011-10-19, 03:33:04,VALID,997.994,VALID,0,VALID,92.4863,VALID,0,VALID,22.2966,VALID,18,VALID,0.920703,
2011-10-19, 03:34:04,VALID,998.033,VALID,0,VALID,92.2345,VALID,0,VALID,22.2559,VALID,13,VALID,0.725391,
2011-10-19, 03:35:04,VALID,998.129,VALID,0,VALID,92.0743,VALID,0,VALID,22.2381,VALID,129,VALID,0.922656,
2011-10-19, 03:36:04,VALID,998.155,VALID,0,VALID,92.1048,VALID,0,VALID,22.2576,VALID,146,VALID,2.01875,
2011-10-19, 03:37:04,VALID,998.178,VALID,0,VALID,92.2955,VALID,0,VALID,22.3746,VALID,154,VALID,2.2418,
2011-10-19, 03:38:04,VALID,998.211,VALID,0,VALID,92.3184,VALID,0,VALID,22.5094,VALID,140,VALID,1.58125,
2011-10-19, 03:39:04,VALID,998.172,VALID,0,VALID,92.2268,VALID,0,VALID,22.6087,VALID,144,VALID,0.611328,
2011-10-19, 03:40:04,VALID,998.179,VALID,0,VALID,91.9293,VALID,0,VALID,22.6655,VALID,143,VALID,0.265234,
2011-10-19, 03:41:04,VALID,998.181,VALID,0,VALID,91.6088,VALID,0,VALID,22.6655,VALID,143,VALID,0,
2011-10-19, 03:42:04,VALID,998.145,VALID,0,VALID,91.4028,VALID,0.104696,VALID,22.7062,VALID,111,VALID,0.631641,
2011-10-19, 03:43:04,VALID,998.147,VALID,0,VALID,91.2884,VALID,0,VALID,22.7452,VALID,94,VALID,0.580469,
2011-10-19, 03:44:04,VALID,998.18,VALID,0,VALID,91.1129,VALID,0,VALID,22.8232,VALID,94,VALID,0.385938,
2011-10-19, 03:45:04,VALID,998.17,VALID,0,VALID,90.762,VALID,0,VALID,22.8818,VALID,94,VALID,0.529688,